Printer-friendly version

IAU Minor Planet Center

Minor Planet Center

MPEC 2005-V64 : COMET C/2005 R4 (LINEAR)

The following Minor Planet Electronic Circular may be linked-to from your own Web pages, but must not otherwise be redistributed electronically.


Read MPEC 2005-V63 Read MPEC 2005-V65


M.P.E.C. 2005-V64                                Issued 2005 Nov. 8, 22:45 UT

     The Minor Planet Electronic Circulars contain information on unusual
         minor planets and routine data on comets.  They are published
   on behalf of Commission 20 of the International Astronomical Union by the
          Minor Planet Center, Smithsonian Astrophysical Observatory,
                          Cambridge, MA 02138, U.S.A.

                  Supported in part by the Brinson Foundation
                  Supported in part by the TABASGO Foundation
             Prepared using the Tamkin Foundation Computer Network

                              MPC@CFA.HARVARD.EDU
          URL http://cfa-www.harvard.edu/iau/mpc.html  ISSN 1523-6714

                           COMET C/2005 R4 (LINEAR)

Observations:
    CK05R040  C2005 10 31.34818 05 10 54.04 +20 21 58.6          19.3 T EV064704
    CK05R040  C2005 10 31.36033 05 10 53.08 +20 21 58.7          19.4 T EV064704
    CK05R040  C2005 10 31.37256 05 10 52.14 +20 21 58.3          18.9 T EV064704
    CK05R040  C2005 11 03.37716 05 06 58.01 +20 22 33.9          18.5 T EV064704
    CK05R040  C2005 11 03.38940 05 06 57.01 +20 22 33.9          18.8 T EV064704
    CK05R040  C2005 11 03.40157 05 06 56.02 +20 22 34.3          19.0 T EV064704
    CK05R040  C2005 11 03.41378 05 06 55.05 +20 22 34.2          18.7 T EV064704
    CK05R040  C2005 11 03.42603 05 06 54.08 +20 22 34.5          18.6 T EV064704
    CK05R040  C2005 11 04.38682 05 05 37.13 +20 22 40.9          18.2 T EV064704
    CK05R040  C2005 11 04.39905 05 05 36.13 +20 22 40.4          18.4 T EV064704
    CK05R040  C2005 11 04.41094 05 05 35.21 +20 22 40.7          18.5 T EV064704
    CK05R040  C2005 11 04.42286 05 05 34.21 +20 22 40.4          18.7 T EV064704
    CK05R040  C2005 11 04.43477 05 05 33.28 +20 22 40.8          18.7 T EV064704
    CK05R040  C2005 11 05.93842 05 03 30.95 +20 22 45.0          17.3 N EV064213
    CK05R040  C2005 11 05.93978 05 03 30.83 +20 22 45.0          17.3 N EV064213
    CK05R040  C2005 11 05.94023 05 03 30.79 +20 22 44.9          17.3 N EV064213
    CK05R040  C2005 11 05.97460 05 03 27.98 +20 22 45.4                 EV064232
    CK05R040  C2005 11 05.98672 05 03 26.99 +20 22 45.2                 EV064232
    CK05R040  C2005 11 05.99883 05 03 26.00 +20 22 45.1                 EV064232
    CK05R040  C2005 11 07.32077 05 01 36.48 +20 22 44.9          18.0 T EV064704
    CK05R040  C2005 11 07.34543 05 01 34.34 +20 22 44.8          18.4 T EV064704
    CK05R040  C2005 11 07.35778 05 01 33.36 +20 22 44.9          18.4 T EV064704
    CK05R040  C2005 11 07.37009 05 01 32.37 +20 22 45.0          18.4 T EV064704
    CK05R040  C2005 11 07.43061 05 01 27.24 +20 22 43.7          17.8 N EV064850
    CK05R040  C2005 11 07.44850 05 01 25.72 +20 22 44.1          17.7 N EV064850

Observer details:
213 Observatorio Montcabre.  Observer R. Naves.  Measurer M. Campas.  0.30-m
    f/10 Schmidt-Cassegrain + CCD.
232 Masquefa Observatory.  Observer E. Reina.  0.25-m f/3.3 Schmidt-Cassegrain
    + CCD.
704 Lincoln Laboratory ETS, New Mexico.  Observers M. Bezpalko, L. Manguso,
    D. Torres, R. Kracke, A. Milner, H. Love.  Measurers J. Stuart, R. Sayer,
    J. Evans, J. Kommers.  1.0-m f/2.15 reflector + CCD.
850 Cordell-Lorenz Observatory, Sewanee.  Observer D. T. Durig.  0.30-m f/5.8
    Schmidt-Cassegrain + CCD.

Orbital elements:
    C/2005 R4 (LINEAR)
T 2006 Mar. 8.6918 TT                                   MPC
q   5.188009             (2000.0)            P               Q
                   Peri.    6.9730      +0.5433915      +0.8023163
                   Node    63.7704      +0.7562988      -0.5955777
e   1.0            Incl.  164.0162      +0.3643321      +0.0396969
From 137 observations 2005 Sept. 13-Nov. 7.

Brian G. Marsden             (C) Copyright 2005 MPC           M.P.E.C. 2005-V64

Read MPEC 2005-V63 Read MPEC 2005-V65


Our Web policy. Index to the CBAT/MPC/ICQ pages.


Valid HTML 4.01!